Location: Curupao
(10.4996°N, 66.6442°W)
Time: 11:09:31
(UTC+00:00)

Cosmos 2297 Rocket - Pass Details

Date: 23 May 2024
Orbit: 839 x 842 km, 71.0° (Epoch: 18 June)

Event Time Altitude Azimuth Distance (km) Brightness Sun altitude
Exits shadow 07:48:26 65° 78° (ENE) 915 2.4 -30.7°
Drops below altitude 10° 07:53:36 10° 23° (NNE) 2,446 5.2 -29.7°
Sets 07:56:03 0° 21° (NNE) 3,380 6.1 -29.1°
